sat.trackr.live / text

‹ back to catalog

STARLINK-31047

NORAD 58783 · 2024-011U

PAYLOAD ACTIVE UNKNOWN

§ Identity

Operator
Country
US
Launch date
2024-01-14
Launch site
AFWTR
Launch vehicle
Mass (kg)
RCS (m²)

Purposes: comms

External: N2YO · Heavens-Above · Gunter

§ Orbital elements

Epoch: 2026-09-20T04:08:44.359296Z

Period
93.85 min
Inclination
53.1582°
Eccentricity
0.0001395
Mean motion
15.34393400 rev/d
Perigee alt
461.8 km
Apogee alt
463.7 km
Semi-major
6,840.9 km
B*
1.1003e-5
RAAN
170.8979°
Arg perigee
68.4226°
Mean anomaly
291.6926°
Rev number
15,031

§ Raw data

STARLINK-310471 58783U 24011U   26263.17273564 -.00000005  00000+0  11003-4 0  99972 58783  53.1582 170.8979 0001395  68.4226 291.6926 15.34393400150311

JSON: /api/v1/satellites/58783 · /tle

For live sub-satellite position, see the globe view (requires WebGL).

§ Visibility from observer

Set your observer location to see the next 7 days of passes ≥ 10°. The values pass through the URL so the page stays shareable.

No JS? Fill the form by hand. The geolocation button needs JavaScript.